Temp
18 18 18 18 18 19 19 19 19 19 19 20 19 19 19 17 18 18 17 16 16 16 16 17 18 18 18 18 18 17 17 17 17 16 16 16 15 15 15 16 16 15 15
18 18 18 18 18 18 17 17 17 17 17 17 18 18 18 18 18 17 17 16 16 16 17 17 18 19 19 18 17 17 17 18 17 17 16 15 15 15 15 15 15 15 15
18 18 18 19 19 19 19 18 17 17 18 18 18 18 17 18 18 17 16 16 16 16 17 17 18 19 19 18 17 17 17 17 17 17 16 15 15 15 15 14 14 14 14
18 19 18 18 18 18 18 18 18 18 20 19 19 18 17 18 17 17 17 16 16 16 16 17 18 18 18 18 17 18 18 17 17 16 16 15 15 15 15 14 14 14 14
18 18 18 17 17 18 18 17 18 19 19 19 18 18 17 18 18 17 16 16 16 16 17 18 18 18 18 17 18 17 17 17 16 16 15 15 14 14 14 15 15 14 14
18 18 18 18 18 18 18 19 19 18 19 19 18 17 17 17 18 17 17 17 16 16 18 18 18 18 18 17 17 17 16 16 16 16 15 15 14 14 14 14 14 14 13
18 18 18 18 18 18 18 18 19 18 18 18 17 16 16 18 18 18 18 18 17 17 17 17 18 18 17 17 17 17 16 16 16 16 15 14 14 14 13 14 14 13 13
17 17 17 17 18 17 17 18 18 17 19 17 17 16 17 18 18 18 18 18 18 17 17 17 17 17 17 17 17 16 16 16 15 15 14 14 13 13 13 12 13 13 12
17 16 16 16 16 16 16 18 18 19 17 18 17 17 17 17 18 18 18 18 18 18 17 16 16 16 16 16 16 16 15 15 15 15 14 14 13 13 13 12 12 12 12
16 15 15 15 15 16 16 17 17 18 18 18 17 17 17 17 17 17 17 17 17 17 17 17 16 16 16 16 16 16 15 15 15 14 14 13 13 13 12 12 12 12 11
15 15 14 14 14 16 16 17 17 18 18 17 17 17 17 17 17 17 17 17 16 17 17 16 16 16 16 15 15 15 15 15 14 14 13 13 13 12 12 11 11 11 11
13 12 13 14 15 17 16 17 17 17 17 17 17 17 17 17 17 16 16 16 17 16 16 16 16 16 16 15 15 14 14 14 14 14 13 13 13 12 11 11 11 10 10
13 13 13 14 16 16 15 16 16 17 17 16 17 17 17 17 17 16 16 16 16 16 16 15 16 15 15 15 14 14 13 13 13 13 13 13 12 12 11 11 10 10 10
13 15 15 16 15 16 16 17 17 16 16 17 17 16 16 16 16 17 16 16 16 15 15 15 15 14 14 14 13 13 13 12 12 12 12 12 12 12 12 11 10 10 10
14 13 14 15 16 16 16 16 16 17 17 16 16 16 16 16 16 16 16 16 15 15 15 15 14 14 14 13 12 12 11 11 11 11 12 12 12 11 11 11 11 10 9
14 14 15 16 16 16 16 16 16 17 16 16 16 16 17 17 16 16 15 15 15 15 14 14 14 13 13 12 11 11 10 10 10 10 11 11 10 10 10 10 10 10 10
14 15 16 16 16 16 17 16 16 16 16 16 17 16 16 17 16 15 15 15 14 14 14 14 13 12 12 11 11 11 10 10 9 10 10 9 9 9 9 9 9 9 9
16 17 16 16 16 16 16 17 16 16 16 16 16 16 16 15 15 15 15 14 14 14 13 13 12 12 11 11 10 10 9 9 9 9 9 9 9 9 9 9 9 8 8
17 17 16 16 16 17 16 16 16 16 15 15 15 15 15 15 15 15 15 14 13 13 13 12 12 11 10 10 10 9 9 8 8 8 8 8 8 8 8 8 8 8 8
17 17 17 17 17 16 16 16 15 15 14 15 15 15 15 15 14 14 14 14 13 13 12 12 11 10 10 9 9 8 8 8 8 8 8 8 8 7 7 7 7 7 7
17 16 17 16 16 16 15 15 14 14 14 14 15 15 14 14 14 14 14 13 13 13 12 11 10 10 9 8 8 8 7 7 7 8 7 7 7 7 6 6 6 6 6
17 17 17 16 17 16 16 16 15 15 14 15 14 14 14 14 14 14 14 13 12 12 12 11 10 9 8 8 7 6 4 6 7 7 7 7 6 6 6 5 5 5 5
17 17 17 17 17 16 16 15 15 14 14 13 13 13 13 13 13 13 13 13 12 11 11 10 9 9 8 8 7 7 4 3 3 6 6 6 6 5 5 5 5 4 4
16 16 16 16 16 15 15 15 15 14 13 14 14 14 13 13 12 12 12 12 11 10 10 9 9 9 8 8 7 7 7 6 3 2 5 6 5 5 5 5 4 4 4
16 16 15 15 15 15 15 15 15 14 14 15 14 13 12 12 12 12 11 11 10 10 9 8 8 8 8 7 6 6 6 5 5 2 1 3 4 4 4 4 4 4 3
15 16 15 15 15 14 14 14 14 14 13 14 13 12 12 12 11 11 10 9 9 9 8 7 8 7 7 6 6 5 5 4 4 2 -0 0 1 3 3 3 3 3 2
Height
789 794 799 802 804 805 807 810 815 817 819 820 823 826 828 830 831 833 834 836 838 839 841 843 843 845 846 847 849 850 850 851 850 850 849 850 849 850 849 849 848 846 847
787 793 799 803 805 806 808 812 816 819 820 821 824 828 831 832 834 836 836 838 841 842 843 843 845 845 847 850 852 853 851 852 852 852 851 850 852 853 852 851 850 850 850
789 793 799 803 806 807 809 813 815 818 820 822 827 829 833 834 837 839 839 841 842 844 846 846 845 845 849 852 854 855 854 854 854 853 853 853 853 854 854 854 852 851 852
791 794 799 804 806 809 812 815 816 820 821 824 827 831 834 836 838 842 841 844 844 846 849 848 849 850 852 855 854 857 857 856 856 856 855 855 857 856 855 854 852 852 853
792 796 800 805 808 810 815 818 818 821 824 826 831 834 838 837 841 844 847 846 848 849 850 851 853 853 855 857 858 859 860 859 858 858 858 858 858 859 856 855 853 853 854
794 797 802 806 809 812 815 818 820 827 825 829 835 838 839 841 842 847 849 848 850 850 852 853 855 856 857 859 860 860 862 861 860 860 860 859 860 861 858 857 855 854 854
795 798 803 808 811 814 816 820 821 830 828 832 837 841 843 844 844 848 850 851 852 852 854 855 857 857 860 861 861 863 864 863 862 862 862 862 861 862 859 857 855 855 855
794 799 805 809 812 816 820 826 827 832 831 837 839 845 846 847 848 849 852 853 855 855 857 857 859 859 861 862 864 863 865 864 865 864 864 864 863 863 862 860 858 856 855
797 800 805 809 811 818 822 827 831 833 836 838 844 848 849 850 851 852 853 855 857 857 859 860 861 862 862 863 863 865 865 866 865 864 865 864 863 864 863 862 859 858 856
801 804 810 812 812 817 826 832 831 836 838 841 846 848 850 852 854 855 857 858 859 859 860 861 861 863 864 865 865 866 867 867 867 865 866 865 865 864 863 863 862 860 858
803 805 811 809 815 819 824 833 836 838 841 844 848 850 852 854 855 857 857 859 860 862 862 863 863 863 865 866 867 867 866 868 868 865 865 866 866 865 863 863 863 862 861
805 812 808 813 820 822 830 833 836 839 843 845 849 851 854 855 856 857 859 860 860 862 863 863 864 864 865 866 868 867 868 870 868 866 865 866 867 865 865 864 865 863 862
806 811 819 820 823 826 834 836 839 841 844 848 850 851 854 855 857 859 859 861 862 863 864 864 865 865 866 866 868 867 869 870 868 866 866 867 866 866 866 865 864 864 864
812 812 819 820 824 830 834 836 840 844 846 847 850 852 854 856 857 858 861 862 861 864 865 865 866 867 868 867 869 869 869 871 869 867 868 866 866 865 865 866 865 864 864
812 816 819 822 827 829 832 837 840 841 846 848 851 853 854 855 857 859 860 862 861 864 865 867 866 868 869 869 870 871 872 871 868 867 867 867 865 865 865 866 866 864 865
815 817 819 824 827 829 832 837 839 841 846 848 851 852 854 855 855 859 860 862 862 864 867 868 868 867 869 872 870 873 872 870 868 868 867 865 865 866 866 866 865 865 865
814 817 820 823 826 829 832 836 839 840 844 847 849 850 852 854 856 857 860 861 863 864 868 868 868 867 869 871 871 872 870 870 869 868 867 866 867 867 866 866 865 865 866
812 815 818 822 826 829 832 834 838 842 844 846 847 849 850 854 856 856 859 861 862 865 868 867 867 868 870 870 872 872 870 870 870 869 869 868 868 867 867 866 866 865 865
810 813 817 820 824 827 830 834 838 840 843 845 844 849 850 853 855 857 859 860 864 865 866 867 867 870 869 870 870 870 869 869 869 868 868 868 867 866 866 865 865 864 864
810 813 816 820 823 826 829 833 837 839 842 842 846 847 849 852 854 857 860 860 862 865 866 867 868 869 870 870 869 868 866 866 866 866 867 867 866 865 866 865 864 863 863
808 811 813 817 820 823 827 830 834 836 839 841 845 845 849 851 854 855 860 860 863 865 865 868 868 870 870 869 868 868 866 865 864 863 864 865 865 865 864 864 863 862 861
802 805 809 813 816 819 822 827 831 833 837 840 842 845 850 851 854 856 859 861 863 864 865 867 868 868 868 867 869 869 868 866 863 861 862 863 863 864 863 863 862 860 858
796 799 803 807 811 816 820 824 827 832 836 839 841 844 847 851 854 857 859 860 861 863 863 865 866 866 866 865 865 867 870 870 865 861 860 861 861 862 861 860 858 857 856
794 799 803 807 810 814 817 820 823 825 829 832 837 841 846 850 852 854 857 859 861 862 862 862 859 862 864 863 863 864 866 867 866 864 860 858 858 858 858 856 854 853 852
790 794 799 804 808 811 814 818 821 824 827 830 835 840 844 846 849 853 855 856 858 859 861 863 864 862 861 862 863 863 863 863 863 862 859 857 856 855 854 852 850 849 849
789 793 796 799 804 809 813 815 817 821 826 829 831 836 840 844 848 851 853 855 856 857 860 861 863 861 861 861 861 861 860 860 859 858 858 855 852 850 849 849 847 846 846
Wind_Speed
27 31 31 31 31 33 33 33 33 32 31 28 26 25 24 24 26 26 28 27 25 23 23 23 23 23 21 21 23 24 23 22 22 22 23 23 23 22 22 22 23 22 21
32 32 31 32 33 34 34 34 32 30 30 27 25 24 25 27 27 28 29 28 26 24 24 22 19 17 18 21 24 23 23 22 24 25 24 23 22 21 21 21 21 22 21
32 33 33 33 34 33 33 32 30 28 27 26 25 25 27 28 28 28 30 29 29 26 24 24 25 27 26 26 25 21 22 24 25 25 25 25 23 21 21 21 21 21 20
32 33 33 32 32 32 31 30 29 26 26 26 25 26 27 28 28 28 31 31 31 28 26 28 30 30 29 27 24 22 23 23 24 24 24 24 22 20 20 20 20 19 19
29 31 30 30 31 31 30 27 25 24 26 25 25 26 27 29 29 29 31 32 30 28 29 29 27 28 27 24 23 23 22 22 22 22 22 21 21 18 19 20 20 19 18
26 30 29 29 30 30 29 27 25 23 26 26 25 25 25 27 30 31 31 32 31 28 30 28 27 26 24 24 22 22 21 20 20 20 19 18 18 16 18 19 19 18 17
25 28 29 30 28 28 26 23 24 22 26 25 24 23 25 28 31 30 30 30 30 28 28 28 27 27 25 23 20 18 18 18 17 16 16 16 16 15 16 17 18 18 17
25 26 29 27 27 24 19 18 21 22 22 22 23 22 25 28 30 29 27 26 26 28 25 25 25 25 24 21 19 17 15 15 15 15 15 14 13 13 14 16 17 18 17
22 27 29 28 28 24 22 18 19 21 23 21 20 22 25 26 27 26 23 22 22 22 21 22 22 22 21 19 17 16 14 13 13 14 12 11 11 11 12 14 16 18 16
27 28 23 25 32 27 17 16 20 18 20 20 20 23 24 24 23 22 19 18 18 19 19 20 20 18 17 15 14 13 12 10 11 11 11 10 9 9 10 12 14 15 15
22 29 29 30 24 25 20 12 15 18 18 19 20 22 22 22 21 18 17 17 17 17 17 16 16 16 15 14 13 12 10 8 7 8 9 9 7 8 9 10 11 12 13
30 27 40 31 22 21 14 15 16 19 20 20 22 21 20 19 18 17 16 15 16 14 14 14 13 13 12 13 14 13 12 10 10 9 8 8 7 6 5 7 8 9 11
39 33 26 33 30 18 16 16 18 19 20 21 21 21 19 18 17 15 14 14 14 13 14 14 12 12 11 10 10 11 10 8 9 9 6 4 5 3 3 5 6 8 9
26 36 30 33 26 16 17 17 18 19 21 22 21 19 18 16 15 14 12 12 14 13 14 12 12 11 10 10 10 10 9 8 8 9 7 5 1 3 3 4 5 6 7
28 28 35 26 20 19 19 19 20 22 20 20 18 18 15 14 13 13 13 14 15 14 13 12 11 11 11 10 11 11 10 10 12 12 11 7 2 3 3 3 4 4 5
24 21 30 23 19 20 20 20 21 21 19 18 16 15 13 15 14 14 16 17 17 14 12 11 11 11 12 9 10 11 12 12 12 12 11 6 5 8 8 6 5 3 2
21 23 28 22 20 22 20 21 21 22 19 16 15 15 14 16 17 18 18 17 15 13 10 9 10 10 9 9 10 10 12 10 9 13 12 10 8 7 5 5 6 4 2
25 22 18 20 22 20 21 21 21 19 17 17 16 15 17 17 18 18 18 17 15 12 8 8 8 8 9 9 8 8 9 7 11 11 12 12 10 7 5 6 5 5 5
25 22 19 20 23 22 21 21 21 19 19 19 16 16 15 18 17 17 18 17 13 11 9 6 8 6 9 7 5 9 3 9 8 8 10 9 8 10 10 8 8 9 10
26 21 22 22 24 24 23 22 20 21 20 15 15 15 16 18 19 18 17 16 14 12 9 7 7 7 6 4 2 7 3 12 7 4 12 9 12 12 5 9 10 10 9
26 23 24 28 26 26 25 23 22 22 19 17 16 16 19 19 19 18 18 16 13 9 6 5 7 7 4 4 1 2 3 11 6 2 12 5 8 5 7 8 10 11 12
30 28 28 31 32 31 30 29 25 24 19 18 18 18 19 19 18 18 16 14 12 8 7 7 6 6 4 5 4 2 3 4 7 8 10 5 3 7 10 10 16 14 13
33 34 34 33 33 33 33 29 22 22 18 19 20 20 20 19 18 16 15 13 12 9 9 8 5 3 4 3 3 1 1 3 4 4 10 5 5 7 9 15 13 13 13
30 31 33 33 33 35 33 32 31 32 22 22 23 23 21 21 19 18 16 14 13 10 8 7 6 2 3 1 1 4 5 7 2 3 6 9 12 9 13 16 14 13 12
31 33 32 33 34 37 37 36 33 28 24 20 24 25 23 20 19 17 16 15 12 9 6 3 1 2 4 3 2 4 7 11 12 10 3 8 10 15 15 17 16 14 9
26 30 32 35 37 36 36 36 33 25 24 20 24 27 24 20 18 16 14 12 12 10 3 2 5 4 4 4 5 8 10 8 7 10 5 10 12 14 12 14 12 12 7
Wind_Direction
160 157 152 147 142 138 133 131 131 130 129 127 126 128 125 121 118 115 107 100 96 93 94 95 95 99 101 101 95 92 91 88 87 81 76 71 68 64 63 62 60 55 50
156 157 155 150 146 139 133 132 132 129 125 123 125 124 124 122 119 113 108 102 101 99 99 96 99 106 110 106 104 101 93 88 85 83 81 77 70 65 62 60 59 54 50
154 161 157 153 148 142 137 134 132 130 127 124 126 127 127 123 119 113 108 106 103 100 93 96 95 98 108 112 110 101 94 89 87 83 81 76 73 68 64 61 58 54 51
157 161 156 152 146 141 136 134 133 134 130 129 130 130 129 124 119 116 111 107 105 102 98 99 99 102 107 113 108 100 96 92 86 82 78 76 72 67 63 59 57 54 50
155 161 154 150 145 138 135 134 133 134 133 130 133 133 130 125 122 119 115 111 109 106 103 104 104 105 109 109 106 103 99 92 87 81 77 73 70 64 62 56 52 50 49
162 159 157 153 148 140 140 141 135 138 132 132 136 134 129 126 123 124 120 116 112 107 104 105 104 104 109 110 106 101 96 89 83 80 74 72 69 63 59 52 46 44 47
162 163 159 153 148 144 140 136 131 140 132 134 134 134 133 130 128 125 120 115 111 108 105 105 105 104 107 105 101 96 92 88 80 73 69 69 71 62 59 48 43 40 47
166 170 152 149 140 131 127 135 137 140 129 139 137 140 137 135 130 125 119 114 112 110 107 106 104 103 100 95 93 91 86 81 68 67 67 69 64 60 57 51 41 39 44
165 143 136 140 133 133 121 148 143 143 140 139 141 142 139 134 128 123 120 116 114 114 111 109 105 101 97 94 88 82 81 75 66 68 73 69 71 63 58 57 52 40 44
135 135 135 141 132 124 135 154 144 138 145 145 146 145 139 133 128 123 117 113 116 117 111 110 110 104 98 90 82 78 79 68 62 68 81 70 63 61 64 57 43 41 50
116 131 131 121 125 124 125 150 148 148 147 149 149 145 141 137 133 125 122 124 119 114 116 112 108 102 95 86 78 78 73 67 69 71 76 76 58 58 66 66 54 50 53
110 116 118 120 122 121 162 172 159 156 158 156 156 148 144 140 136 134 133 129 124 124 122 116 109 99 83 72 73 76 77 69 65 71 78 89 63 68 75 77 71 68 59
127 134 132 134 139 177 192 173 170 166 163 163 157 152 148 145 143 145 141 138 135 134 127 120 106 89 81 70 56 56 57 52 55 57 67 77 85 58 96 90 81 71 62
144 142 152 148 173 190 192 178 175 174 173 166 161 155 152 150 152 153 154 151 148 145 131 114 102 90 73 63 57 52 42 29 31 35 33 31 23 85 136 107 79 76 67
158 171 172 181 188 187 188 187 182 175 176 171 167 167 166 164 163 165 163 156 145 141 128 116 100 83 72 66 62 49 42 28 16 4 359 352 11 136 138 113 70 63 56
179 189 177 187 196 190 189 190 184 176 178 180 181 185 188 190 181 178 163 151 139 138 125 110 96 86 76 62 64 52 40 23 12 16 17 27 103 112 105 83 52 44 68
186 188 193 202 199 197 193 192 185 180 184 191 190 187 187 193 187 172 161 152 145 138 131 113 96 82 72 63 64 44 17 20 72 62 62 76 102 115 97 44 33 21 319
185 193 203 214 203 200 196 191 187 191 191 188 186 189 190 192 180 169 166 160 151 146 135 117 97 81 74 63 53 25 3 101 100 81 72 70 70 60 31 8 351 338 311
197 199 209 210 204 202 198 193 194 196 197 195 191 196 186 182 179 179 172 161 161 154 141 119 103 91 82 71 37 353 354 149 121 72 39 31 23 358 344 343 329 313 291
204 207 210 208 201 199 196 195 197 194 196 195 196 192 189 186 182 180 175 172 168 161 142 125 108 111 101 46 99 341 163 168 155 39 16 2 352 342 344 345 329 310 294
205 210 207 203 198 197 192 189 191 192 191 188 191 188 186 186 186 183 181 174 169 165 142 134 126 132 98 46 24 351 163 191 206 295 356 2 330 1 318 322 315 305 298
203 209 207 207 203 203 204 198 195 195 195 196 189 183 189 188 186 186 186 177 175 175 166 167 163 148 122 60 28 17 1 277 273 224 307 340 155 342 311 310 311 304 304
207 208 206 206 204 205 202 195 195 190 191 188 187 189 190 192 191 191 188 185 180 188 177 165 144 112 97 81 55 99 4 265 320 295 195 275 217 319 319 311 302 297 297
209 214 211 209 208 206 203 199 199 193 187 200 201 199 193 197 197 195 194 187 187 179 162 157 152 123 14 46 24 195 242 268 234 315 254 213 270 279 306 323 302 292 282
209 212 211 213 214 211 208 209 207 203 203 206 204 198 196 194 194 194 193 191 181 158 150 144 152 359 349 319 275 258 261 258 254 237 256 261 255 268 286 313 303 300 280
205 212 213 213 217 215 214 214 212 204 208 207 199 196 194 194 194 197 196 172 143 138 120 352 299 313 308 291 275 265 252 243 247 239 240 262 257 287 271 303 300 293 279